Regional Weather Roundup
Issued by NWS

Home | Current Version | Previous Version | Graphics & Text | Print | Product List | Glossary On
Versions: 1 2 3 4 5 6 7 8 9 10 11 12 13 14 15 16 17 18 19 20 21 22 23 24 25 26 27 28 29 30 31 32 33 34 35 36 37 38 39 40 41 42 43 44 45 46 47 48 49 50
000
ASUS45 KCYS 020110
RWRWY

WYOMING REGIONAL WEATHER ROUNDUP
NATIONAL WEATHER SERVICE CHEYENNE WY
700 PM MDT SAT AUG 01 2015

NOTE:  "FAIR" INDICATES FEW OR NO CLOUDS BELOW 12,000 FEET
WITH NO SIGNIFICANT WEATHER AND/OR OBSTRUCTIONS TO VISIBILITY.

WYZ001-020200-
YELLOWSTONE NATIONAL PARK

CITY           SKY/WX    TMP DP  RH WIND       PRES   REMARKS
LK YELLOWSTONE   N/A     72  40  31 CALM      30.32F
W YELLOWSTONE  NOT AVBL

$$
WYZ002>013-054>058-071-098>099-020200-
NORTHERN WYOMING

CITY           SKY/WX    TMP DP  RH WIND       PRES   REMARKS
JACKSON        SUNNY     82  27  13 W9        30.19F
CODY           FAIR      82  39  21 N7        30.05F
GREYBULL       FAIR      95  22   7 N10       29.94F
WORLAND        FAIR      93  31  11 N5        29.97F
SHERIDAN       FAIR      90  31  12 NW9       29.97S
BUFFALO        FAIR      89  30  12 N9        30.06F
GILLETTE       FAIR      91  25   9 N10       29.99S
HULETT         FAIR      90  32  12 CALM      29.98F
NEWCASTLE      FAIR      90  23   9 MISG      29.99F

$$
WYZ014>020-022>026-101>103-020200-
CENTRAL WYOMING

CITY           SKY/WX    TMP DP  RH WIND       PRES   REMARKS
BIG PINEY      FAIR      82  16   8 N12G20    30.23F
PINEDALE       FAIR      79  27  14 NW10G16   30.23F
DUBOIS         FAIR      81  19  10 NW13      30.22F
LANDER         FAIR      89  34  14 NE8       30.05F
RIVERTON       FAIR      89  30  12 E10       30.07F
CASPER         FAIR      91  16   6 W9        30.05F
DOUGLAS        FAIR      91  31  11 NE8       30.03F

$$
WYZ021-027>030-104>119-020200-
SOUTHERN WYOMING

CITY           SKY/WX    TMP DP  RH WIND       PRES   REMARKS
EVANSTON       FAIR      84  22  10 N8G16     30.23F
KEMMERER       FAIR     N/A N/A N/A NW12G17   30.23F
FORT BRIDGER   CLEAR     86  25  10 E3        30.23F
ROCK SPRINGS   FAIR      81  24  12 SW6       30.17F
DIXON          FAIR      86  26  11 CALM      30.17F
RAWLINS        FAIR      86  23  10 CALM      30.17F
SARATOGA       FAIR      84  23  10 W5        30.19F
LARAMIE        FAIR      78  40  25 E10       30.21S
CHEYENNE       FAIR      81  45  28 SE5       30.13S
TORRINGTON     FAIR      85  55  35 SE15G22   29.98R
PINE BLUFFS    FAIR      84  43  23 CALM      30.05F

$$



USA.gov is the U.S. government's official web portal to all federal, state and local government web resources and services.